SCP
0 0 0 0 0 0 0 0 -0 -0 -0 -0 -0 -0 -0 -0 -0 0 0 0 0 0 0 0 -0 -0 0 0 0 0 0 0 0 -0 -0 0 0 0 0 -0 0 0 0 0 0 0 0 -0 0 0 0 0 0 0
0 0 0 0 0 0 0 0 -0 -0 -0 -0 -0 -0 -0 -0 -0 -0 0 0 0 0 0 -0 -0 -0 0 0 0 0 0 0 0 0 0 0 0 0 0 0 0 0 0 0 0 0 0 0 0 0 0 0 0 0
0 0 0 0 0 0 0 0 -0 -0 -0 -0 -0 -0 -0 -0 -0 -0 0 -0 0 -0 -0 0 0 0 0 0 0 0 0 0 0 -0 0 0 -0 0 -0 -0 -0 -0 -0 -0 0 0 0 0 0 0 0 0 0 0
0 0 0 0 0 0 0 0 0 -0 -0 -0 -0 -0 -0 -0 -0 -0 0 -0 0 0 0 0 0 0 0 0 0 0 0 0 -0 0 -0 0 0 -0 0 0 -0 -0 -0 -0 0 0 0 0 0 0 0 0 0 0
0 0 0 0 0 0 0 0 0 -0 -0 -0 -0 -0 -0 -0 -0 -0 0 -0 -0 0 0 0 0 -0 0 0 0 0 -0 -0 -0 -0 0 -0 -0 -0 0 -0 -0 -0 -0 0 0 0 0 0 0 0 0 0 0 0
0 0 0 0 0 0 0 0 0 -0 -0 -0 -0 -0 -0 -0 -0 0 0 0 -0 -0 0 -0 -0 0 -0 -0 -0 -0 -0 -0 -0 -0 0 0 0 0 0 -0 -0 -0 0 0 0 0 0 0 0 0 0 0 0 0
0 0 0 0 0 0 0 0 0 -0 -0 -0 0 -0 -0 -0 -0 0 -0 -0 -0 -0 -0 -0 -0 0 -0 0 -0 -0 0 0 0 -0 -0 -0 -0 -0 -0 -0 0 0 0 0 0 0 0 0 0 0 0 0 0 0
0 0 0 0 0 0 0 0 -0 -0 0 0 0 -0 -0 -0 0 0 0 -0 -0 -0 -0 -0 -0 -0 0 0 -0 0 -0 0 0 -0 -0 0 -0 0 0 0 0 0 0 0 0 0 0 0 0 0 0 0 0 0
0 0 0 0 0 0 0 0 0 0 0 0 0 -0 0 0 0 0 -0 -0 -0 -0 -0 0 -0 0 -0 0 -0 0 -0 0 -0 0 0 0 0 0 0 0 0 0 0 0 0 0 0 0 0 0 0 0 0 0
0 0 0 0 0 0 0 0 0 0 0 0 0 0 0 0 0 -0 0 0 -0 0 0 -0 0 0 -0 0 0 0 -0 0 0 0 0 0 0 0 0 0 0 0 0 0 0 0 0 0 0 0 0 0 0 0
0 0 0 0 0 0 0 0 0 0 0 0 0 0 0 0 0 0 0 -0 -0 -0 -0 -0 -0 -0 -0 -0 0 -0 0 0 0 0 0 0 0 0 0 0 0 0 0 0 0 0 0 0 0 0 0 0 0 0
0 0 0 0 0 0 0 0 0 0 0 0 0 0 0 0 0 0 -0 -0 0 -0 -0 -0 -0 0 0 0 0 0 0 0 0 0 0 0 0 0 0 0 0 0 0 0 0 0 0 0 0 0 0 0 0 0
0 0 0 0 0 0 0 0 0 0 0 0 0 0 0 0 0 0 0 0 0 0 0 0 0 0 0 0 0 0 0 0 0 0 0 0 0 0 0 0 0 0 0 0 0 0 0 0 0 0 0 0 0 0
0 0 0 0 0 0 0 0 0 0 0 0 0 0 0 0 0 0 0 0 0 0 0 0 0 0 0 0 0 0 0 0 0 0 0 0 0 0 0 0 0 0 0 0 0 0 0 0 0 0 0 0 0 0
0 0 0 0 0 0 0 0 0 0 0 0 0 0 0 0 0 0 0 0 0 0 0 0 0 0 0 0 0 0 0 0 0 0 0 0 0 0 0 0 0 0 0 0 0 0 0 0 0 0 0 0 0 0
0 0 0 0 0 0 0 0 0 0 0 0 0 0 0 0 0 0 0 0 0 0 0 0 0 0 0 0 0 0 0 0 0 0 0 0 0 0 0 0 0 0 0 0 0 0 0 0 0 0 0 0 0 0
0 0 0 0 0 0 0 0 0 0 0 0 0 0 0 0 0 0 0 0 0 0 0 0 0 0 0 0 0 0 0 0 0 0 0 0 0 0 0 0 0 0 0 0 0 0 0 0 0 0 0 0 0 0
0 0 0 0 0 0 0 0 0 0 0 0 0 0 0 0 0 0 0 0 0 0 0 0 0 0 0 0 0 0 0 0 0 0 0 0 0 0 0 0 0 0 0 0 0 0 0 0 0 0 0 0 0 0
0 0 0 0 0 0 0 0 0 0 0 0 0 0 0 0 0 0 0 0 0 0 0 0 0 0 0 0 0 0 0 0 0 0 0 0 0 -0 0 0 0 0 0 0 0 0 0 0 0 0 0 -0 -0 -0
0 0 0 0 0 0 0 0 0 0 0 0 0 0 0 0 0 0 0 0 0 0 0 0 0 0 0 0 0 0 0 0 0 0 0 0 0 0 0 0 0 0 0 0 0 0 0 0 0 0 0 0 -0 0
0 0 0 0 0 0 0 0 0 0 0 0 0 0 0 0 0 0 0 0 0 0 0 0 0 0 0 0 0 0 0 0 0 0 0 0 0 0 0 0 0 0 0 0 0 0 0 0 0 -0 0 -0 -0 -0
0 0 0 0 0 0 0 0 0 0 0 0 0 0 0 0 0 0 0 0 0 0 0 0 0 0 0 0 0 0 0 0 0 -0 0 0 0 0 0 0 0 0 0 0 0 0 0 0 0 0 -0 0 -0 -0
0 0 0 0 0 0 0 0 0 0 0 0 0 0 0 0 0 0 0 0 0 0 0 0 0 0 0 0 0 0 0 0 -0 0 0 0 0 0 0 0 0 0 0 0 0 0 0 0 0 0 0 -0 0 0
0 0 0 0 0 0 0 0 0 0 0 0 0 0 0 0 0 0 0 0 0 0 0 0 0 0 0 0 0 0 0 0 0 0 0 0 0 0 0 0 0 0 0 0 0 0 0 0 0 0 0 0 0 0
0 0 0 0 0 0 0 0 0 0 0 0 0 0 0 0 0 0 0 0 0 0 0 0 0 0 0 0 0 0 0 0 0 0 0 0 0 0 0 0 0 0 0 0 0 0 0 0 0 0 0 0 0 0
0 0 0 0 0 0 0 0 0 0 0 0 0 0 0 0 0 0 0 0 0 0 0 0 0 0 0 0 0 0 0 0 0 0 0 0 0 0 0 0 0 0 0 0 0 0 0 0 0 0 0 0 0 0
0 0 0 0 0 0 0 0 0 0 0 0 0 0 0 0 0 0 0 0 0 0 0 0 0 0 0 0 0 0 0 0 0 0 0 0 0 0 0 0 0 0 0 0 0 0 0 0 0 0 0 0 0 0
0 0 0 0 0 0 0 0 0 0 0 0 0 0 0 0 0 0 0 0 0 0 0 0 0 0 0 0 0 0 0 0 0 0 0 0 0 0 0 0 0 0 0 0 0 0 0 0 0 0 0 0 0 0
0 0 0 0 0 0 0 0 0 0 0 0 0 0 0 0 0 0 0 0 0 0 0 0 0 0 0 0 0 0 0 0 0 0 0 0 0 0 0 0 0 0 0 0 0 0 0 0 0 0 0 0 0 0
0 0 0 0 0 0 0 0 0 0 0 0 0 0 0 0 0 0 0 0 0 0 0 0 0 0 0 0 0 0 0 0 0 0 0 0 0 0 0 0 0 0 0 0 0 0 0 0 0 0 0 0 0 0
0 0 0 0 0 0 -0 0 0 0 0 0 0 0 0 0 0 0 0 0 -0 -0 -0 -0 0 0 0 0 0 0 0 0 0 0 0 0 0 0 0 0 0 0 0 0 0 0 0 0 0 0 0 0 0 0
0 0 0 0 0 0 0 0 0 0 0 0 0 0 0 -0 0 -0 0 0 -0 -0 0 0 0 0 0 0 0 0 0 0 0 0 0 0 0 0 0 0 0 0 0 0 0 0 0 0 0 0 0 0 0 0
0 0 0 0 0 0 0 0 0 0 0 0 -0 -0 0 -0 -0 0 0 0 0 -0 0 0 0 0 0 0 0 0 0 0 0 0 0 0 0 0 0 0 0 0 0 0 0 0 0 0 0 0 0 0 0 -0
Wind_Speed_500mb
10 5 2 7 14 20 26 32 37 37 35 32 29 26 24 21 24 28 23 26 29 35 30 33 36 43 36 36 17 11 8 9 17 15 11 10 9 1 4 14 13 12 10 7 14 13 9 38 20 14 15 18 20 22
12 6 1 5 12 17 23 31 35 34 33 30 27 23 21 17 25 27 16 30 28 19 29 31 36 32 29 24 16 12 8 16 19 12 10 9 11 18 11 5 19 10 15 10 13 11 20 23 22 16 17 17 19 18
14 8 3 4 10 15 22 29 33 32 31 28 24 20 17 16 19 20 20 17 16 27 24 24 27 26 23 23 19 11 16 13 7 9 17 6 17 8 9 11 11 25 53 17 14 23 20 17 14 16 17 16 15 15
15 10 5 3 8 14 21 27 31 31 29 25 21 17 13 13 15 24 19 15 7 8 10 17 12 22 19 16 14 12 8 6 9 12 19 10 11 11 12 16 23 21 21 15 15 24 17 22 18 13 11 11 12 12
17 12 6 4 8 14 20 25 29 28 25 21 18 15 12 12 16 22 17 20 22 11 15 18 10 21 16 15 13 9 6 7 19 11 11 7 5 14 32 27 23 32 20 11 8 21 20 17 11 8 8 10 9 6
18 12 6 4 7 14 18 24 26 25 21 16 14 17 13 14 19 22 7 13 10 18 7 8 13 16 17 16 14 14 5 13 15 18 12 9 7 12 9 17 32 28 21 15 16 13 14 9 5 5 5 4 4 4
19 13 8 6 8 14 17 23 24 21 15 11 12 19 22 14 7 8 5 6 4 11 9 15 15 12 8 10 12 14 8 8 15 10 4 19 13 15 17 19 27 27 18 10 6 15 10 16 8 4 2 3 5 3
19 14 9 6 10 15 17 21 20 16 11 10 13 20 26 29 24 18 15 10 4 7 9 2 8 6 9 9 13 1 8 10 9 8 3 11 20 18 10 23 22 27 25 35 27 16 7 8 10 5 2 2 4 4
20 14 9 7 11 13 16 19 16 11 10 17 20 20 17 16 9 9 24 15 7 9 18 13 6 9 5 9 8 7 4 6 4 8 6 9 8 10 13 14 20 24 29 31 33 34 24 16 23 12 10 12 13 12
20 14 9 7 9 11 14 15 12 9 16 17 14 3 7 6 19 13 8 2 2 4 7 7 15 11 15 5 6 5 4 5 9 7 7 11 11 15 12 13 16 22 25 29 32 34 34 30 27 26 21 24 20 15
20 13 7 5 6 9 11 11 10 14 14 14 9 10 8 14 7 5 3 2 2 6 9 7 14 14 11 16 8 7 9 4 5 8 3 7 5 10 9 12 17 22 25 28 28 29 30 33 34 34 32 28 25 20
19 12 6 2 4 7 9 9 8 5 4 10 11 10 5 3 6 3 2 5 8 7 6 21 13 10 10 7 10 7 7 2 6 4 5 7 7 10 11 15 20 26 29 31 32 33 36 38 37 37 39 26 25 26
20 12 5 1 4 7 9 10 13 21 16 15 9 4 5 2 4 4 6 6 7 6 8 10 7 8 4 3 7 5 4 2 5 5 7 6 8 9 12 18 25 27 30 31 33 34 37 36 35 35 37 33 24 30
18 11 4 2 5 8 10 11 13 12 13 5 3 8 6 6 6 12 19 20 9 8 9 12 7 12 5 6 7 7 7 7 7 7 7 12 17 18 19 24 26 29 33 35 37 38 37 36 38 38 34 18 15 22
14 9 3 3 5 9 12 14 11 13 9 7 4 2 7 15 17 17 19 16 10 12 13 13 4 8 11 5 4 7 5 6 13 8 9 14 13 21 24 27 31 34 34 38 42 43 44 40 36 37 33 23 21 20
11 4 2 3 6 11 14 15 17 9 5 4 3 11 15 16 16 18 18 17 14 14 10 5 5 5 4 7 5 1 12 13 5 5 8 10 19 22 21 27 29 35 32 32 39 46 43 39 34 35 34 32 21 27
7 1 2 5 11 13 15 18 8 7 5 0 2 10 21 23 19 14 13 16 16 15 12 5 6 11 10 7 5 9 10 13 13 17 19 19 20 20 24 28 31 31 29 39 35 45 45 45 39 38 33 36 33 35
7 5 8 13 17 19 9 10 7 5 6 11 10 12 17 15 12 12 12 14 16 14 11 11 7 6 3 6 16 12 14 15 16 9 7 17 13 14 20 24 30 31 37 43 35 38 41 44 43 42 38 30 33 32
11 10 13 16 18 17 5 7 5 4 8 7 11 9 10 7 7 6 9 11 11 9 7 7 4 4 12 16 15 19 22 14 15 11 8 8 7 14 14 28 32 30 35 42 45 31 33 41 45 45 41 39 43 36
14 14 19 19 16 7 5 5 6 4 5 6 6 5 4 8 4 3 5 8 9 4 0 2 7 17 21 18 13 13 14 15 14 18 14 10 11 21 26 27 26 35 42 38 37 42 41 38 44 49 47 41 42 50
15 17 19 15 8 6 4 3 5 6 6 3 5 3 4 0 1 3 6 9 4 3 5 4 7 15 7 3 6 7 11 12 15 20 25 27 27 30 28 21 31 32 29 33 37 39 44 32 37 40 38 39 57 46
16 19 13 10 6 5 3 3 4 5 2 5 6 4 2 1 1 4 8 5 4 4 8 13 11 11 10 3 3 7 14 16 19 23 19 22 25 31 33 29 31 35 31 28 28 33 37 36 34 37 46 43 45 48
23 15 7 5 2 4 2 3 3 1 4 6 3 3 3 4 4 5 6 3 2 7 5 6 7 6 6 7 8 7 11 13 23 24 29 26 28 33 34 33 37 38 41 41 27 31 34 38 36 36 37 41 48 52
18 6 2 3 2 2 3 5 2 5 4 7 3 2 2 1 3 6 9 5 2 6 3 3 6 3 7 9 13 17 12 22 25 24 29 35 38 37 40 43 43 41 41 38 34 36 37 35 38 41 41 41 37 45
1 4 2 1 4 6 7 7 7 7 6 6 5 3 3 3 6 5 0 2 6 7 7 8 10 9 10 11 11 17 15 16 33 31 31 38 40 42 45 49 47 48 40 38 33 35 34 37 39 44 42 37 47 46
1 5 7 8 7 8 7 6 8 9 6 7 7 3 4 5 6 5 4 3 6 5 6 10 12 15 18 17 21 23 20 25 33 41 34 34 42 49 52 53 46 41 41 37 37 41 41 42 41 40 43 47 39 44
5 7 9 7 6 6 8 7 9 8 6 6 5 7 6 7 7 4 8 6 6 5 8 13 14 18 22 25 26 26 29 30 27 29 37 35 36 37 33 32 29 36 35 36 37 40 39 41 40 43 46 44 43 38
3 7 11 13 13 15 9 11 9 7 7 4 7 5 4 0 2 3 1 3 11 17 16 17 18 19 15 22 24 25 25 27 28 33 34 31 25 27 36 36 42 52 48 37 38 39 39 41 41 44 51 51 45 43
9 13 16 16 14 10 9 8 6 4 3 7 8 7 4 2 5 10 12 13 15 15 17 17 15 15 19 21 21 22 26 28 33 34 35 35 35 34 36 35 33 35 36 38 38 39 43 50 57 55 54 49 48 50
14 17 11 13 16 9 5 6 1 7 9 9 12 12 11 14 11 12 18 19 17 17 18 18 16 18 19 21 23 23 23 23 23 25 32 36 34 30 32 33 34 35 37 39 41 45 46 48 51 48 39 33 33 38
18 17 8 10 5 9 12 9 8 9 11 13 16 16 20 24 25 23 23 19 18 16 15 14 15 17 20 21 21 23 24 20 25 31 34 31 25 28 32 35 37 35 42 51 51 56 55 50 49 46 46 41 35 37
17 14 10 9 9 8 5 9 14 15 17 22 24 26 27 28 27 26 22 16 13 15 16 18 17 17 16 18 18 17 26 26 25 21 21 30 34 33 39 40 42 42 48 48 50 53 56 50 48 48 43 43 43 39
16 17 14 11 12 14 15 14 13 21 23 26 29 26 28 32 36 11 12 15 18 19 18 18 16 15 17 20 16 16 20 21 28 39 44 47 51 48 43 43 41 42 45 47 47 51 51 52 49 45 41 49 44 36
Wind_Direction_500mb
172 162 74 15 12 11 7 3 4 5 5 7 10 16 29 54 72 77 31 71 73 91 62 56 50 42 31 25 18 19 270 12 312 310 342 15 14 252 107 108 82 270 71 317 22 25 48 13 28 45 4 5 23 13
181 178 129 13 6 4 3 359 1 2 2 5 10 19 33 71 85 77 57 81 64 87 101 71 59 50 45 31 4 340 54 51 11 328 4 338 3 27 314 36 342 50 55 63 41 91 77 56 47 42 23 31 18 23
186 185 203 2 355 355 357 356 357 359 360 4 12 23 41 65 76 89 57 79 104 117 127 49 38 32 32 26 19 354 39 12 31 326 297 63 57 43 49 329 323 66 55 80 71 360 71 49 75 60 37 34 28 27
186 192 212 323 344 346 350 353 354 355 358 4 14 26 48 80 87 85 35 36 41 300 120 77 54 28 17 33 33 51 65 9 322 275 288 47 78 137 159 94 50 45 39 72 62 12 93 57 48 43 48 31 28 34
187 198 218 297 329 339 344 349 350 352 358 7 20 33 55 89 91 97 42 42 34 41 55 103 105 26 31 43 56 70 78 313 286 14 13 2 76 7 88 64 43 32 24 56 60 44 33 46 47 41 33 27 22 42
190 200 223 277 317 334 338 346 348 351 360 13 37 46 62 98 102 87 102 10 18 29 324 106 66 40 52 64 80 84 69 352 357 51 132 92 36 354 59 76 27 31 35 19 53 41 52 39 44 29 33 39 49 58
188 198 221 262 308 328 334 343 347 352 3 28 63 66 68 75 96 69 56 131 96 27 316 145 122 47 65 73 93 95 65 19 15 92 125 66 48 84 64 56 14 13 8 23 22 3 345 337 38 5 48 64 98 71
184 196 220 262 305 323 333 341 349 357 18 58 83 83 84 72 63 54 95 111 105 356 300 41 109 111 340 141 97 29 111 106 13 89 20 73 66 71 57 22 22 16 9 15 0 328 302 329 325 247 225 258 264 263
183 195 217 267 304 323 332 344 357 16 60 90 90 80 57 30 99 82 86 77 29 27 328 352 65 86 234 93 137 115 274 95 266 95 100 47 61 55 58 29 26 19 17 6 1 12 13 349 318 270 253 238 261 268
186 195 220 275 309 328 341 358 17 63 97 80 43 297 68 62 101 87 35 90 123 49 321 39 340 81 317 328 121 193 286 125 182 77 178 89 86 107 74 48 21 9 4 0 359 355 351 338 321 309 287 273 263 260
181 188 214 276 317 345 6 25 64 97 62 15 12 67 91 75 31 5 49 338 153 121 13 38 25 1 17 351 9 3 341 9 234 125 202 103 93 82 57 31 10 358 353 348 343 335 330 323 318 313 293 276 263 249
176 181 195 265 353 18 40 57 91 46 75 99 92 81 34 328 17 305 80 169 9 54 31 17 27 2 22 337 292 26 304 240 58 126 117 88 109 55 20 5 1 352 348 343 338 338 331 324 319 311 305 289 242 236
171 169 175 50 38 52 73 78 95 106 105 47 21 31 22 126 30 253 148 153 111 64 15 335 82 339 209 14 292 309 289 321 21 230 71 94 97 55 14 1 353 352 350 343 341 340 338 334 323 322 315 310 253 228
163 160 138 67 61 77 91 98 117 77 51 18 56 356 257 124 48 37 42 64 65 34 11 337 41 5 14 352 328 290 25 309 278 77 72 67 37 9 5 2 350 351 351 349 347 336 333 334 335 336 324 321 267 231
165 158 94 45 78 96 102 97 103 72 19 30 323 295 65 78 92 80 83 83 39 10 1 337 227 326 49 292 2 19 271 263 47 64 99 66 34 3 0 350 347 345 347 346 345 340 330 329 329 328 326 315 290 264
165 163 13 53 88 105 112 96 52 41 31 355 211 123 116 114 104 70 57 43 11 354 314 322 346 27 340 330 276 358 321 45 52 50 81 76 34 13 353 352 339 339 346 350 349 344 338 332 332 324 320 313 286 267
152 45 117 107 104 110 108 78 53 47 32 246 87 42 68 73 68 56 34 12 352 337 37 354 337 29 303 308 317 18 64 60 33 45 48 49 32 4 356 349 339 337 338 342 341 343 347 334 324 326 319 326 304 283
71 149 142 129 113 78 41 49 63 56 99 126 109 66 71 80 96 65 39 20 22 12 351 27 326 268 335 338 59 37 25 10 351 5 15 349 331 342 350 344 332 342 344 340 336 341 339 345 343 337 331 316 315 310
163 141 139 131 109 84 48 33 57 83 75 71 90 79 83 81 76 71 42 30 27 17 341 312 288 293 38 45 15 12 38 30 356 342 345 17 327 324 340 344 332 348 345 345 342 339 348 339 343 343 332 334 321 300
136 136 137 121 88 67 64 47 50 67 123 79 106 140 77 71 65 31 10 12 357 333 141 268 328 40 48 40 18 0 344 347 346 348 345 320 349 340 341 342 346 343 342 339 340 346 342 341 337 344 349 330 309 318
118 134 137 102 57 63 79 77 68 62 121 162 128 191 100 133 274 12 354 352 270 347 313 76 334 91 53 56 20 358 27 5 340 325 328 325 331 324 317 316 325 325 332 331 337 337 340 339 344 344 337 334 348 312
143 129 97 51 48 28 61 55 48 136 215 108 178 215 217 220 261 72 326 240 259 18 23 360 33 40 92 63 67 331 328 321 324 316 317 313 317 318 323 318 320 318 317 324 328 334 336 341 335 347 346 339 347 356
119 87 76 54 59 45 96 118 165 168 186 161 191 196 191 209 79 339 261 268 335 56 346 7 36 321 293 278 285 321 334 323 317 329 329 325 320 320 321 327 330 331 337 322 321 328 328 329 332 336 345 345 338 339
112 76 113 167 170 92 162 180 170 197 212 199 200 223 171 275 56 250 271 97 126 26 39 57 300 299 242 285 307 306 317 300 307 324 332 328 326 324 323 322 318 312 313 308 311 311 313 321 326 337 338 335 335 338
99 83 127 224 216 188 191 183 201 203 217 189 193 204 223 178 252 258 332 236 283 35 1 327 320 333 316 334 313 314 331 321 324 324 323 322 319 320 317 315 312 317 323 320 316 314 319 315 310 316 316 320 335 329
93 171 201 195 183 214 188 195 204 218 198 186 220 212 213 220 275 256 148 118 44 13 337 326 315 314 316 316 322 320 319 318 318 319 317 321 318 318 317 317 317 315 311 323 319 314 314 312 311 314 312 314 314 327
214 173 200 225 201 211 230 216 213 196 212 224 196 200 210 227 245 139 64 62 13 318 305 303 302 306 310 310 309 314 318 317 316 315 320 320 316 315 321 328 337 318 320 323 318 316 315 313 310 306 308 309 307 313
241 199 192 190 208 204 224 187 194 229 206 240 292 241 231 274 253 42 78 291 286 290 288 288 290 290 294 308 308 310 312 314 311 313 311 314 314 314 313 315 307 305 312 315 309 305 310 308 307 306 302 295 302 306
212 212 172 197 185 202 228 223 231 243 213 211 241 309 267 203 263 287 287 288 286 280 284 286 293 298 305 303 305 307 310 315 316 317 319 319 321 319 320 328 335 336 334 330 329 327 320 306 297 301 296 292 297 299
191 190 202 200 215 218 204 194 229 251 233 236 245 247 268 265 266 290 287 285 275 272 273 277 286 289 294 301 304 306 309 315 317 315 314 314 314 317 323 332 331 329 329 336 335 329 329 326 321 322 313 296 290 302
181 199 206 247 215 146 218 199 213 253 250 244 244 253 261 274 281 282 272 264 265 262 263 273 282 284 289 294 298 304 307 305 307 308 310 316 317 318 314 312 319 325 317 325 335 340 337 332 330 326 328 314 295 327
194 203 219 209 158 184 204 234 238 242 247 246 249 259 265 265 271 279 248 230 244 248 261 274 280 283 280 282 290 298 298 303 314 317 315 305 305 308 311 314 315 315 316 315 324 329 336 331 325 323 327 326 315 305
202 213 228 177 174 212 239 235 256 272 261 265 261 263 257 249 253 252 207 230 236 243 255 261 267 276 271 281 292 297 313 312 317 327 325 324 324 326 330 332 339 344 341 335 326 325 326 332 327 327 319 322 326 306
Wind_Speed_850mb
10 5 2 7 14 20 26 32 37 37 35 32 29 26 24 21 24 28 23 26 29 35 30 33 36 43 36 36 17 11 8 9 17 15 11 10 9 1 4 14 13 12 10 7 14 13 9 38 20 14 15 18 20 22
12 6 1 5 12 17 23 31 35 34 33 30 27 23 21 17 25 27 16 30 28 19 29 31 36 32 29 24 16 12 8 16 19 12 10 9 11 18 11 5 19 10 15 10 13 11 20 23 22 16 17 17 19 18
14 8 3 4 10 15 22 29 33 32 31 28 24 20 17 16 19 20 20 17 16 27 24 24 27 26 23 23 19 11 16 13 7 9 17 6 17 8 9 11 11 25 53 17 14 23 20 17 14 16 17 16 15 15
15 10 5 3 8 14 21 27 31 31 29 25 21 17 13 13 15 24 19 15 7 8 10 17 12 22 19 16 14 12 8 6 9 12 19 10 11 11 12 16 23 21 21 15 15 24 17 22 18 13 11 11 12 12
17 12 6 4 8 14 20 25 29 28 25 21 18 15 12 12 16 22 17 20 22 11 15 18 10 21 16 15 13 9 6 7 19 11 11 7 5 14 32 27 23 32 20 11 8 21 20 17 11 8 8 10 9 6
18 12 6 4 7 14 18 24 26 25 21 16 14 17 13 14 19 22 7 13 10 18 7 8 13 16 17 16 14 14 5 13 15 18 12 9 7 12 9 17 32 28 21 15 16 13 14 9 5 5 5 4 4 4
19 13 8 6 8 14 17 23 24 21 15 11 12 19 22 14 7 8 5 6 4 11 9 15 15 12 8 10 12 14 8 8 15 10 4 19 13 15 17 19 27 27 18 10 6 15 10 16 8 4 2 3 5 3
19 14 9 6 10 15 17 21 20 16 11 10 13 20 26 29 24 18 15 10 4 7 9 2 8 6 9 9 13 1 8 10 9 8 3 11 20 18 10 23 22 27 25 35 27 16 7 8 10 5 2 2 4 4
20 14 9 7 11 13 16 19 16 11 10 17 20 20 17 16 9 9 24 15 7 9 18 13 6 9 5 9 8 7 4 6 4 8 6 9 8 10 13 14 20 24 29 31 33 34 24 16 23 12 10 12 13 12
20 14 9 7 9 11 14 15 12 9 16 17 14 3 7 6 19 13 8 2 2 4 7 7 15 11 15 5 6 5 4 5 9 7 7 11 11 15 12 13 16 22 25 29 32 34 34 30 27 26 21 24 20 15
20 13 7 5 6 9 11 11 10 14 14 14 9 10 8 14 7 5 3 2 2 6 9 7 14 14 11 16 8 7 9 4 5 8 3 7 5 10 9 12 17 22 25 28 28 29 30 33 34 34 32 28 25 20
19 12 6 2 4 7 9 9 8 5 4 10 11 10 5 3 6 3 2 5 8 7 6 21 13 10 10 7 10 7 7 2 6 4 5 7 7 10 11 15 20 26 29 31 32 33 36 38 37 37 39 26 25 26
20 12 5 1 4 7 9 10 13 21 16 15 9 4 5 2 4 4 6 6 7 6 8 10 7 8 4 3 7 5 4 2 5 5 7 6 8 9 12 18 25 27 30 31 33 34 37 36 35 35 37 33 24 30
18 11 4 2 5 8 10 11 13 12 13 5 3 8 6 6 6 12 19 20 9 8 9 12 7 12 5 6 7 7 7 7 7 7 7 12 17 18 19 24 26 29 33 35 37 38 37 36 38 38 34 18 15 22
14 9 3 3 5 9 12 14 11 13 9 7 4 2 7 15 17 17 19 16 10 12 13 13 4 8 11 5 4 7 5 6 13 8 9 14 13 21 24 27 31 34 34 38 42 43 44 40 36 37 33 23 21 20
11 4 2 3 6 11 14 15 17 9 5 4 3 11 15 16 16 18 18 17 14 14 10 5 5 5 4 7 5 1 12 13 5 5 8 10 19 22 21 27 29 35 32 32 39 46 43 39 34 35 34 32 21 27
7 1 2 5 11 13 15 18 8 7 5 0 2 10 21 23 19 14 13 16 16 15 12 5 6 11 10 7 5 9 10 13 13 17 19 19 20 20 24 28 31 31 29 39 35 45 45 45 39 38 33 36 33 35
7 5 8 13 17 19 9 10 7 5 6 11 10 12 17 15 12 12 12 14 16 14 11 11 7 6 3 6 16 12 14 15 16 9 7 17 13 14 20 24 30 31 37 43 35 38 41 44 43 42 38 30 33 32
11 10 13 16 18 17 5 7 5 4 8 7 11 9 10 7 7 6 9 11 11 9 7 7 4 4 12 16 15 19 22 14 15 11 8 8 7 14 14 28 32 30 35 42 45 31 33 41 45 45 41 39 43 36
14 14 19 19 16 7 5 5 6 4 5 6 6 5 4 8 4 3 5 8 9 4 0 2 7 17 21 18 13 13 14 15 14 18 14 10 11 21 26 27 26 35 42 38 37 42 41 38 44 49 47 41 42 50
15 17 19 15 8 6 4 3 5 6 6 3 5 3 4 0 1 3 6 9 4 3 5 4 7 15 7 3 6 7 11 12 15 20 25 27 27 30 28 21 31 32 29 33 37 39 44 32 37 40 38 39 57 46
16 19 13 10 6 5 3 3 4 5 2 5 6 4 2 1 1 4 8 5 4 4 8 13 11 11 10 3 3 7 14 16 19 23 19 22 25 31 33 29 31 35 31 28 28 33 37 36 34 37 46 43 45 48
23 15 7 5 2 4 2 3 3 1 4 6 3 3 3 4 4 5 6 3 2 7 5 6 7 6 6 7 8 7 11 13 23 24 29 26 28 33 34 33 37 38 41 41 27 31 34 38 36 36 37 41 48 52
18 6 2 3 2 2 3 5 2 5 4 7 3 2 2 1 3 6 9 5 2 6 3 3 6 3 7 9 13 17 12 22 25 24 29 35 38 37 40 43 43 41 41 38 34 36 37 35 38 41 41 41 37 45
1 4 2 1 4 6 7 7 7 7 6 6 5 3 3 3 6 5 0 2 6 7 7 8 10 9 10 11 11 17 15 16 33 31 31 38 40 42 45 49 47 48 40 38 33 35 34 37 39 44 42 37 47 46
1 5 7 8 7 8 7 6 8 9 6 7 7 3 4 5 6 5 4 3 6 5 6 10 12 15 18 17 21 23 20 25 33 41 34 34 42 49 52 53 46 41 41 37 37 41 41 42 41 40 43 47 39 44
5 7 9 7 6 6 8 7 9 8 6 6 5 7 6 7 7 4 8 6 6 5 8 13 14 18 22 25 26 26 29 30 27 29 37 35 36 37 33 32 29 36 35 36 37 40 39 41 40 43 46 44 43 38
3 7 11 13 13 15 9 11 9 7 7 4 7 5 4 0 2 3 1 3 11 17 16 17 18 19 15 22 24 25 25 27 28 33 34 31 25 27 36 36 42 52 48 37 38 39 39 41 41 44 51 51 45 43
9 13 16 16 14 10 9 8 6 4 3 7 8 7 4 2 5 10 12 13 15 15 17 17 15 15 19 21 21 22 26 28 33 34 35 35 35 34 36 35 33 35 36 38 38 39 43 50 57 55 54 49 48 50
14 17 11 13 16 9 5 6 1 7 9 9 12 12 11 14 11 12 18 19 17 17 18 18 16 18 19 21 23 23 23 23 23 25 32 36 34 30 32 33 34 35 37 39 41 45 46 48 51 48 39 33 33 38
18 17 8 10 5 9 12 9 8 9 11 13 16 16 20 24 25 23 23 19 18 16 15 14 15 17 20 21 21 23 24 20 25 31 34 31 25 28 32 35 37 35 42 51 51 56 55 50 49 46 46 41 35 37
17 14 10 9 9 8 5 9 14 15 17 22 24 26 27 28 27 26 22 16 13 15 16 18 17 17 16 18 18 17 26 26 25 21 21 30 34 33 39 40 42 42 48 48 50 53 56 50 48 48 43 43 43 39
16 17 14 11 12 14 15 14 13 21 23 26 29 26 28 32 36 11 12 15 18 19 18 18 16 15 17 20 16 16 20 21 28 39 44 47 51 48 43 43 41 42 45 47 47 51 51 52 49 45 41 49 44 36
Wind_Direction_850mb
172 162 74 15 12 11 7 3 4 5 5 7 10 16 29 54 72 77 31 71 73 91 62 56 50 42 31 25 18 19 270 12 312 310 342 15 14 252 107 108 82 270 71 317 22 25 48 13 28 45 4 5 23 13
181 178 129 13 6 4 3 359 1 2 2 5 10 19 33 71 85 77 57 81 64 87 101 71 59 50 45 31 4 340 54 51 11 328 4 338 3 27 314 36 342 50 55 63 41 91 77 56 47 42 23 31 18 23
186 185 203 2 355 355 357 356 357 359 360 4 12 23 41 65 76 89 57 79 104 117 127 49 38 32 32 26 19 354 39 12 31 326 297 63 57 43 49 329 323 66 55 80 71 360 71 49 75 60 37 34 28 27
186 192 212 323 344 346 350 353 354 355 358 4 14 26 48 80 87 85 35 36 41 300 120 77 54 28 17 33 33 51 65 9 322 275 288 47 78 137 159 94 50 45 39 72 62 12 93 57 48 43 48 31 28 34
187 198 218 297 329 339 344 349 350 352 358 7 20 33 55 89 91 97 42 42 34 41 55 103 105 26 31 43 56 70 78 313 286 14 13 2 76 7 88 64 43 32 24 56 60 44 33 46 47 41 33 27 22 42
190 200 223 277 317 334 338 346 348 351 360 13 37 46 62 98 102 87 102 10 18 29 324 106 66 40 52 64 80 84 69 352 357 51 132 92 36 354 59 76 27 31 35 19 53 41 52 39 44 29 33 39 49 58
188 198 221 262 308 328 334 343 347 352 3 28 63 66 68 75 96 69 56 131 96 27 316 145 122 47 65 73 93 95 65 19 15 92 125 66 48 84 64 56 14 13 8 23 22 3 345 337 38 5 48 64 98 71
184 196 220 262 305 323 333 341 349 357 18 58 83 83 84 72 63 54 95 111 105 356 300 41 109 111 340 141 97 29 111 106 13 89 20 73 66 71 57 22 22 16 9 15 0 328 302 329 325 247 225 258 264 263
183 195 217 267 304 323 332 344 357 16 60 90 90 80 57 30 99 82 86 77 29 27 328 352 65 86 234 93 137 115 274 95 266 95 100 47 61 55 58 29 26 19 17 6 1 12 13 349 318 270 253 238 261 268
186 195 220 275 309 328 341 358 17 63 97 80 43 297 68 62 101 87 35 90 123 49 321 39 340 81 317 328 121 193 286 125 182 77 178 89 86 107 74 48 21 9 4 0 359 355 351 338 321 309 287 273 263 260
181 188 214 276 317 345 6 25 64 97 62 15 12 67 91 75 31 5 49 338 153 121 13 38 25 1 17 351 9 3 341 9 234 125 202 103 93 82 57 31 10 358 353 348 343 335 330 323 318 313 293 276 263 249
176 181 195 265 353 18 40 57 91 46 75 99 92 81 34 328 17 305 80 169 9 54 31 17 27 2 22 337 292 26 304 240 58 126 117 88 109 55 20 5 1 352 348 343 338 338 331 324 319 311 305 289 242 236
171 169 175 50 38 52 73 78 95 106 105 47 21 31 22 126 30 253 148 153 111 64 15 335 82 339 209 14 292 309 289 321 21 230 71 94 97 55 14 1 353 352 350 343 341 340 338 334 323 322 315 310 253 228
163 160 138 67 61 77 91 98 117 77 51 18 56 356 257 124 48 37 42 64 65 34 11 337 41 5 14 352 328 290 25 309 278 77 72 67 37 9 5 2 350 351 351 349 347 336 333 334 335 336 324 321 267 231
165 158 94 45 78 96 102 97 103 72 19 30 323 295 65 78 92 80 83 83 39 10 1 337 227 326 49 292 2 19 271 263 47 64 99 66 34 3 0 350 347 345 347 346 345 340 330 329 329 328 326 315 290 264
165 163 13 53 88 105 112 96 52 41 31 355 211 123 116 114 104 70 57 43 11 354 314 322 346 27 340 330 276 358 321 45 52 50 81 76 34 13 353 352 339 339 346 350 349 344 338 332 332 324 320 313 286 267
152 45 117 107 104 110 108 78 53 47 32 246 87 42 68 73 68 56 34 12 352 337 37 354 337 29 303 308 317 18 64 60 33 45 48 49 32 4 356 349 339 337 338 342 341 343 347 334 324 326 319 326 304 283
71 149 142 129 113 78 41 49 63 56 99 126 109 66 71 80 96 65 39 20 22 12 351 27 326 268 335 338 59 37 25 10 351 5 15 349 331 342 350 344 332 342 344 340 336 341 339 345 343 337 331 316 315 310
163 141 139 131 109 84 48 33 57 83 75 71 90 79 83 81 76 71 42 30 27 17 341 312 288 293 38 45 15 12 38 30 356 342 345 17 327 324 340 344 332 348 345 345 342 339 348 339 343 343 332 334 321 300
136 136 137 121 88 67 64 47 50 67 123 79 106 140 77 71 65 31 10 12 357 333 141 268 328 40 48 40 18 0 344 347 346 348 345 320 349 340 341 342 346 343 342 339 340 346 342 341 337 344 349 330 309 318
118 134 137 102 57 63 79 77 68 62 121 162 128 191 100 133 274 12 354 352 270 347 313 76 334 91 53 56 20 358 27 5 340 325 328 325 331 324 317 316 325 325 332 331 337 337 340 339 344 344 337 334 348 312
143 129 97 51 48 28 61 55 48 136 215 108 178 215 217 220 261 72 326 240 259 18 23 360 33 40 92 63 67 331 328 321 324 316 317 313 317 318 323 318 320 318 317 324 328 334 336 341 335 347 346 339 347 356
119 87 76 54 59 45 96 118 165 168 186 161 191 196 191 209 79 339 261 268 335 56 346 7 36 321 293 278 285 321 334 323 317 329 329 325 320 320 321 327 330 331 337 322 321 328 328 329 332 336 345 345 338 339
112 76 113 167 170 92 162 180 170 197 212 199 200 223 171 275 56 250 271 97 126 26 39 57 300 299 242 285 307 306 317 300 307 324 332 328 326 324 323 322 318 312 313 308 311 311 313 321 326 337 338 335 335 338
99 83 127 224 216 188 191 183 201 203 217 189 193 204 223 178 252 258 332 236 283 35 1 327 320 333 316 334 313 314 331 321 324 324 323 322 319 320 317 315 312 317 323 320 316 314 319 315 310 316 316 320 335 329
93 171 201 195 183 214 188 195 204 218 198 186 220 212 213 220 275 256 148 118 44 13 337 326 315 314 316 316 322 320 319 318 318 319 317 321 318 318 317 317 317 315 311 323 319 314 314 312 311 314 312 314 314 327
214 173 200 225 201 211 230 216 213 196 212 224 196 200 210 227 245 139 64 62 13 318 305 303 302 306 310 310 309 314 318 317 316 315 320 320 316 315 321 328 337 318 320 323 318 316 315 313 310 306 308 309 307 313
241 199 192 190 208 204 224 187 194 229 206 240 292 241 231 274 253 42 78 291 286 290 288 288 290 290 294 308 308 310 312 314 311 313 311 314 314 314 313 315 307 305 312 315 309 305 310 308 307 306 302 295 302 306
212 212 172 197 185 202 228 223 231 243 213 211 241 309 267 203 263 287 287 288 286 280 284 286 293 298 305 303 305 307 310 315 316 317 319 319 321 319 320 328 335 336 334 330 329 327 320 306 297 301 296 292 297 299
191 190 202 200 215 218 204 194 229 251 233 236 245 247 268 265 266 290 287 285 275 272 273 277 286 289 294 301 304 306 309 315 317 315 314 314 314 317 323 332 331 329 329 336 335 329 329 326 321 322 313 296 290 302
181 199 206 247 215 146 218 199 213 253 250 244 244 253 261 274 281 282 272 264 265 262 263 273 282 284 289 294 298 304 307 305 307 308 310 316 317 318 314 312 319 325 317 325 335 340 337 332 330 326 328 314 295 327
194 203 219 209 158 184 204 234 238 242 247 246 249 259 265 265 271 279 248 230 244 248 261 274 280 283 280 282 290 298 298 303 314 317 315 305 305 308 311 314 315 315 316 315 324 329 336 331 325 323 327 326 315 305
202 213 228 177 174 212 239 235 256 272 261 265 261 263 257 249 253 252 207 230 236 243 255 261 267 276 271 281 292 297 313 312 317 327 325 324 324 326 330 332 339 344 341 335 326 325 326 332 327 327 319 322 326 306